Simultaneous Nadir Overpasses (SNOs) Predictions

Prediction of SNOs between GOES-14 and NOAA-20 Satellite Orbit:

Table of predicted SNOs for the next 14.0 days since TLE Epoch: 10/5/2018
Index Date Time (GOES-14) GOES-14 Lat,Lon NOAA-20 Lat,Lon Distance(km) Time Diff (sec)
1 10/06/2018 08:04:43 0.28,-104.09 -0.52,-100.50 409.66 80
2 10/07/2018 20:26:39 -0.26,-104.12 -0.66,-105.80 191.62 80
3 10/08/2018 20:10:35 -0.27,-104.13 0.36,-101.27 325.98 80
4 10/10/2018 08:32:23 0.25,-104.12 0.80,-106.54 276.56 80
5 10/11/2018 08:10:59 0.26,-104.11 -0.22,-102.01 239.34 80
6 10/12/2018 20:32:55 -0.24,-104.12 -0.96,-107.32 364.82 80
7 10/13/2018 20:16:51 -0.25,-104.13 0.06,-102.79 152.80 80
8 10/15/2018 08:38:39 0.22,-104.14 1.10,-108.06 446.71 80
9 10/16/2018 08:17:14 0.23,-104.13 0.08,-103.53 69.19 80
10 10/18/2018 20:20:26 -0.22,-104.12 -0.23,-104.31 20.59 80




NCC Satellite Simultaneous Nadir Overpasses (SNOs) Prediction Service
